• In Czech Republic
  • List of Countries
  • For 7 days
  • Water Temperature
  • Satellite Maps
  • Weather Map
  • Weather Widgets
  • user-avatar
    Login

    Hourly Weather Burgas

    Today, 16 November, Friday

    Time Temperature Precipitation Wind Pressure Humidity
    00:00 +4°C° 0 mm 6 mps 765 mmHg 77%
    01:00 +4°C° 0 mm 6 mps 766 mmHg 78%
    02:00 +3°C° 0 mm 6 mps 765 mmHg 80%
    03:00 +2°C° 0 mm 6 mps 766 mmHg 81%
    04:00 +2°C° 0 mm 6 mps 766 mmHg 81%
    05:00 +2°C° 0 mm 7 mps 766 mmHg 82%
    06:00 +2°C° 0 mm 7 mps 766 mmHg 81%
    07:00 +2°C° 0 mm 7 mps 767 mmHg 81%
    08:00 +2°C° 0 mm 7 mps 767 mmHg 80%
    09:00 +3°C° 0 mm 7 mps 767 mmHg 76%
    10:00 +4°C° 0 mm 7 mps 767 mmHg 72%
    11:00 +4°C° 0 mm 7 mps 768 mmHg 68%
    12:00 +4°C° 0 mm 7 mps 768 mmHg 67%
    13:00 +4°C° 0 mm 7 mps 768 mmHg 66%
    14:00 +4°C° 0 mm 7 mps 768 mmHg 64%
    15:00 +3°C° 0 mm 6 mps 768 mmHg 65%
    16:00 +3°C° 0 mm 6 mps 768 mmHg 66%
    17:00 +2°C° 0 mm 6 mps 769 mmHg 67%
    18:00 +2°C° 0 mm 6 mps 769 mmHg 69%
    19:00 +1°C° 0 mm 5 mps 769 mmHg 71%
    20:00 +1°C° 0 mm 5 mps 769 mmHg 73%
    21:00 0°C° 0 mm 5 mps 769 mmHg 74%
    22:00 0°C° 0 mm 5 mps 769 mmHg 76%
    23:00 0°C° 0 mm 5 mps 770 mmHg 78%

    Tomorrow, 17 November, Saturday

    Time Temperature Precipitation Wind Pressure Humidity
    00:00 0°C° 0 mm 4 mps 770 mmHg 79%
    01:00 0°C° 0 mm 4 mps 770 mmHg 80%
    02:00 0°C° 0 mm 4 mps 770 mmHg 80%
    03:00 0°C° 0 mm 4 mps 770 mmHg 81%
    04:00 0°C° 0 mm 4 mps 770 mmHg 81%
    05:00 0°C° 0 mm 4 mps 770 mmHg 81%
    06:00 0°C° 0 mm 4 mps 770 mmHg 82%
    07:00 0°C° 0 mm 4 mps 770 mmHg 82%
    08:00 0°C° 0 mm 4 mps 770 mmHg 83%
    09:00 +3°C° 0 mm 4 mps 770 mmHg 78%
    10:00 +4°C° 0 mm 4 mps 770 mmHg 73%
    11:00 +5°C° 0 mm 4 mps 770 mmHg 68%
    12:00 +5°C° 0 mm 4 mps 769 mmHg 67%
    13:00 +6°C° 0 mm 5 mps 769 mmHg 66%
    14:00 +6°C° 0 mm 5 mps 769 mmHg 65%
    15:00 +5°C° 0 mm 5 mps 769 mmHg 69%
    16:00 +5°C° 0 mm 5 mps 768 mmHg 72%
    17:00 +3°C° 0 mm 5 mps 768 mmHg 76%
    18:00 +4°C° 0 mm 4 mps 768 mmHg 78%
    19:00 +4°C° 0 mm 4 mps 768 mmHg 79%
    20:00 +4°C° 0 mm 4 mps 768 mmHg 81%
    21:00 +4°C° 0 mm 4 mps 768 mmHg 82%
    22:00 +4°C° 0 mm 3 mps 768 mmHg 83%
    23:00 +4°C° 0 mm 3 mps 768 mmHg 84%

    Day after tomorrow, 18 November, Sunday

    Time Temperature Precipitation Wind Pressure Humidity
    00:00 +4°C° 0 mm 3 mps 768 mmHg 85%
    01:00 +4°C° 0 mm 3 mps 768 mmHg 86%
    02:00 +4°C° 0 mm 3 mps 768 mmHg 86%
    03:00 +4°C° 0 mm 4 mps 768 mmHg 87%
    04:00 +4°C° 0 mm 4 mps 767 mmHg 87%
    05:00 +4°C° 0 mm 4 mps 767 mmHg 87%
    06:00 +3°C° 0.1 mm 5 mps 767 mmHg 86%
    07:00 +3°C° 0.1 mm 5 mps 767 mmHg 86%
    08:00 +3°C° 0.1 mm 5 mps 767 mmHg 85%
    09:00 +5°C° 0.1 mm 5 mps 767 mmHg 83%
    10:00 +5°C° 0.1 mm 5 mps 767 mmHg 81%
    11:00 +5°C° 0.1 mm 5 mps 767 mmHg 79%
    12:00 +6°C° 0.1 mm 5 mps 766 mmHg 79%
    13:00 +6°C° 0.1 mm 5 mps 765 mmHg 79%
    14:00 +6°C° 0.1 mm 5 mps 765 mmHg 79%
    15:00 +6°C° 0.1 mm 5 mps 764 mmHg 79%
    16:00 +6°C° 0.1 mm 5 mps 764 mmHg 80%
    17:00 +6°C° 0.1 mm 5 mps 764 mmHg 81%
    18:00 +6°C° 0.1 mm 5 mps 763 mmHg 82%
    19:00 +5°C° 0.1 mm 6 mps 763 mmHg 82%
    20:00 +5°C° 0.1 mm 6 mps 762 mmHg 83%
    21:00 +5°C° 0.3 mm 6 mps 762 mmHg 84%
    22:00 +5°C° 0.3 mm 6 mps 761 mmHg 85%
    23:00 +5°C° 0.3 mm 6 mps 761 mmHg 86%

    19 November, Monday

    Time Temperature Precipitation Wind Pressure Humidity
    00:00 +5°C° 1.1 mm 6 mps 760 mmHg 87%
    01:00 +5°C° 1.1 mm 6 mps 760 mmHg 88%
    02:00 +5°C° 1.1 mm 6 mps 760 mmHg 90%
    03:00 +5°C° 1 mm 6 mps 759 mmHg 90%
    04:00 +7°C° 1 mm 6 mps 759 mmHg 91%
    05:00 +7°C° 1 mm 6 mps 758 mmHg 91%
    06:00 +7°C° 0.4 mm 6 mps 758 mmHg 91%
    07:00 +7°C° 0.4 mm 6 mps 758 mmHg 91%
    08:00 +7°C° 0.4 mm 6 mps 758 mmHg 91%
    09:00 +8°C° 0.2 mm 6 mps 758 mmHg 90%
    10:00 +8°C° 0.2 mm 6 mps 758 mmHg 89%
    11:00 +9°C° 0.2 mm 6 mps 758 mmHg 87%
    12:00 +9°C° 0.1 mm 5 mps 758 mmHg 87%
    13:00 +9°C° 0.1 mm 5 mps 757 mmHg 87%
    14:00 +10°C° 0.1 mm 5 mps 757 mmHg 87%
    15:00 +10°C° 0.1 mm 4 mps 757 mmHg 89%
    16:00 +10°C° 0.1 mm 3 mps 757 mmHg 91%
    17:00 +10°C° 0.1 mm 3 mps 757 mmHg 93%
    18:00 +10°C° 0.1 mm 3 mps 758 mmHg 94%
    19:00 +10°C° 0.1 mm 2 mps 758 mmHg 95%
    20:00 +10°C° 0.1 mm 2 mps 758 mmHg 95%
    21:00 +10°C° 0.2 mm 2 mps 758 mmHg 95%
    22:00 +10°C° 0.2 mm 2 mps 758 mmHg 96%
    23:00 +11°C° 0.2 mm 1 mps 759 mmHg 96%

    20 November, Tuesday

    Time Temperature Precipitation Wind Pressure Humidity
    00:00 +11°C° 0 mm 1 mps 759 mmHg 96%
    01:00 +11°C° 0 mm 1 mps 759 mmHg 96%
    02:00 +11°C° 0 mm 1 mps 758 mmHg 96%
    03:00 +11°C° 0 mm 1 mps 758 mmHg 96%
    04:00 +11°C° 0 mm 1 mps 758 mmHg 96%
    05:00 +11°C° 0 mm 1 mps 758 mmHg 96%
    06:00 +11°C° 0 mm 1 mps 758 mmHg 96%
    07:00 +10°C° 0 mm 2 mps 758 mmHg 96%
    08:00 +10°C° 0 mm 2 mps 758 mmHg 96%
    09:00 +11°C° 0.2 mm 3 mps 758 mmHg 95%
    10:00 +12°C° 0.2 mm 3 mps 758 mmHg 94%
    11:00 +12°C° 0.2 mm 4 mps 758 mmHg 93%
    12:00 +13°C° 0.1 mm 4 mps 757 mmHg 90%
    13:00 +15°C° 0.1 mm 4 mps 756 mmHg 87%
    14:00 +17°C° 0.1 mm 4 mps 756 mmHg 84%
    15:00 +16°C° 0.2 mm 5 mps 755 mmHg 84%
    16:00 +16°C° 0.2 mm 5 mps 755 mmHg 84%
    17:00 +16°C° 0.2 mm 5 mps 755 mmHg 85%
    18:00 +16°C° 0.2 mm 6 mps 755 mmHg 85%
    19:00 +16°C° 0.2 mm 6 mps 755 mmHg 86%
    20:00 +16°C° 0.2 mm 6 mps 754 mmHg 87%
    21:00 +16°C° 0.2 mm 6 mps 754 mmHg 87%
    22:00 +16°C° 0.2 mm 6 mps 754 mmHg 88%
    23:00 +16°C° 0.2 mm 6 mps 754 mmHg 89%

    21 November, Wednesday

    Time Temperature Precipitation Wind Pressure Humidity
    00:00 +16°C° 0 mm 6 mps 754 mmHg 88%
    01:00 +16°C° 0 mm 6 mps 753 mmHg 87%
    02:00 +16°C° 0 mm 6 mps 753 mmHg 87%
    03:00 +16°C° 0 mm 6 mps 753 mmHg 85%
    04:00 +16°C° 0 mm 7 mps 752 mmHg 84%
    05:00 +16°C° 0 mm 7 mps 752 mmHg 83%
    06:00 +16°C° 0.1 mm 7 mps 752 mmHg 83%
    07:00 +16°C° 0.1 mm 7 mps 751 mmHg 83%
    08:00 +16°C° 0.1 mm 7 mps 751 mmHg 83%
    09:00 +17°C° 0.4 mm 7 mps 751 mmHg 78%
    10:00 +18°C° 0.4 mm 8 mps 751 mmHg 74%
    11:00 +20°C° 0.4 mm 8 mps 751 mmHg 69%
    12:00 +20°C° 0 mm 8 mps 751 mmHg 66%
    13:00 +21°C° 0 mm 8 mps 750 mmHg 62%
    14:00 +21°C° 0 mm 8 mps 750 mmHg 59%
    15:00 +20°C° 0 mm 7 mps 750 mmHg 62%
    16:00 +19°C° 0 mm 6 mps 751 mmHg 65%
    17:00 +17°C° 0 mm 5 mps 751 mmHg 67%
    18:00 +17°C° 0 mm 4 mps 751 mmHg 71%
    19:00 +17°C° 0 mm 4 mps 752 mmHg 74%
    20:00 +15°C° 0 mm 4 mps 752 mmHg 78%
    21:00 +16°C° 0 mm 3 mps 753 mmHg 80%
    22:00 +14°C° 0 mm 3 mps 753 mmHg 82%
    23:00 +13°C° 0 mm 3 mps 754 mmHg 84%
    Show more